Tracking 29892 objects as of 21-Nov-2024
HD Live streaming from Space Station
objects crossing your sky now

STARLINK-1862

Track STARLINK-1862 now!
10-day predictions
STARLINK-1862 is classified as:


NORAD ID: 47149
Int'l Code: 2020-088AD
Perigee: 553.8 km
Apogee: 554.8 km
Inclination: 53.1 °
Period: 95.6 minutes
Semi major axis: 6925 km
RCS: Unknown
Launch date: November 25, 2020
Source: United States (US)
Launch site: AIR FORCE EASTERN TEST RANGE (AFETR)
Your satellite tracking list
Your tracking list is empty




NASA's NSSDC Master Catalog

Two Line Element Set (TLE):
1 47149U 20088AD  24325.84658285  .00016569  00000-0  11281-2 0  9997
2 47149  53.0544 268.7798 0000732  65.0095 295.0969 15.06417169221153
Source of the keplerian elements: AFSPC